Regional Weather Roundup
Issued by NWS

Home | Current Version | Previous Version | Text Only | Print | Product List | Glossary Off
Versions: 1 2 3 4 5 6 7 8 9 10 11 12 13 14 15 16 17 18 19 20 21 22 23 24 25 26 27 28 29 30 31 32 33 34 35 36 37 38 39 40 41 42 43 44 45 46 47 48 49 50

000
ASUS43 KFSD 280602
RWRSD

WEATHER ROUNDUP FOR SOUTH DAKOTA
NATIONAL WEATHER SERVICE SIOUX FALLS SD
100 AM CDT THU MAY 28 2015

NOTE: "FAIR" INDICATES FEW OR NO CLOUDS BELOW 12,000 FEET WITH NO
SIGNIFICANT WEATHER AND/OR OBSTRUCTIONS TO VISIBILITY.


SDZ001>005-009-010-012>017-280700-
NORTHWEST AND NORTH CENTRAL SOUTH DAKOTA

CITY           SKY/WX    TMP DP  RH WIND       PRES   REMARKS
BUFFALO          N/A     54  53  97 CALM      29.87F
FAITH            N/A     57  53  86 SE14      29.91F
MOBRIDGE       CLOUDY    62  60  93 SE16      29.91F
$$

SDZ012>016-024>037-041>051-057-063-072>074-280700-
SOUTHWEST AND SOUTH CENTRAL SOUTH DAKOTA

CITY           SKY/WX    TMP DP  RH WIND       PRES   REMARKS
RAPID CTY ARPT PTCLDY    53  52  96 SE3       29.94F
PIERRE         CLOUDY    63  60  90 S12       29.93F
CUSTER         PTCLDY    50  45  83 S8        30.05S
ELLSWORTH AFB  PTCLDY    56  56  99 VRB2      29.93F
PHILIP         PTCLDY    60  56  86 S7        29.93F
PINE RIDGE     PTCLDY    61  54  77 S21G28    29.97F
WINNER         FAIR      66  54  65 S8        29.97F
$$

SDZ004>011-016>023-039-040-280700-
NORTHEAST SOUTH DAKOTA

CITY           SKY/WX    TMP DP  RH WIND       PRES   REMARKS
ABERDEEN       CLOUDY    65  57  75 W16G24    29.99R
WATERTOWN      CLOUDY    67  53  61 SE3       30.00F
BROOKINGS      MOCLDY    64  52  63 SE10      30.03S
$$

SDZ017-020-022-023-036>040-048>070-280700-
SOUTHEAST SOUTH DAKOTA

CITY           SKY/WX    TMP DP  RH WIND       PRES   REMARKS
SIOUX FALLS    PTCLDY    65  50  58 S8        30.03S
HURON            N/A    N/A N/A N/A MISG      29.97S
CHAMBERLAIN    CLOUDY    64  55  74 SE5       29.97F
MITCHELL       MOCLDY    67  55  65 S7        29.99S
YANKTON        MOCLDY    64  46  52 CALM      30.01S
$$

ABBREVIATIONS USED IN REMARKS
   TC - TEMPERATURE IN CELSIUS
  WCI - WIND CHILL INDEX
   HX - HEAT INDEX
  VSB - VISIBILITY



USA.gov is the U.S. government's official web portal to all federal, state and local government web resources and services.